Dewpoint
66 70 73 73 73 73 73 72 71 70 70 69 67 67 66 66 66 66 67 67 68 68 67 66 65 64 64 65 68 68 68 67 64 64 65 65 65 64 64 65 62 61 63
66 69 73 73 73 73 73 72 71 70 70 68 66 66 66 65 65 65 66 65 66 66 65 64 64 64 63 65 67 66 65 62 61 63 63 65 67 67 67 66 67 65 64
66 68 70 73 73 73 72 72 71 69 69 68 67 65 64 63 64 64 63 63 64 64 63 62 63 63 64 64 66 64 61 63 64 62 62 64 66 67 67 66 67 66 66
65 67 69 72 72 73 72 71 70 70 69 68 67 66 64 63 63 63 64 63 64 63 62 60 60 61 64 65 64 60 64 64 63 63 59 64 65 66 66 65 65 65 64
65 65 69 72 72 72 71 71 71 70 69 69 68 67 65 63 62 62 62 63 64 63 63 63 64 62 60 60 61 64 64 64 64 63 64 64 63 63 64 64 62 63 63
65 64 70 71 72 71 71 71 71 70 70 69 69 68 66 62 62 62 62 64 64 64 65 65 65 66 65 65 66 65 66 66 63 57 58 60 62 61 61 61 61 61 61
63 67 68 71 71 71 71 71 70 70 70 69 69 68 67 64 62 63 63 64 65 62 65 67 67 67 67 67 67 66 63 61 56 55 57 59 60 60 60 60 60 60 59
68 68 67 71 71 71 71 71 71 70 71 70 69 69 67 65 63 63 63 65 64 64 66 66 66 67 67 66 65 64 62 60 54 56 57 59 61 60 60 59 59 59 58
69 67 67 68 70 71 71 71 70 71 70 69 69 69 68 66 64 63 64 65 64 65 66 65 66 67 67 66 64 62 59 58 54 54 55 57 60 59 59 58 58 58 58
68 68 65 67 68 69 70 71 71 70 68 67 67 69 68 66 65 65 65 65 66 66 65 65 64 66 67 65 64 61 59 58 55 55 57 59 60 59 58 58 58 58 58
67 67 65 66 66 67 68 69 70 68 67 66 66 67 67 65 64 62 62 66 66 66 65 65 64 65 67 65 63 61 60 56 55 56 58 61 59 58 58 58 58 57 57
65 66 65 64 66 68 67 67 67 66 64 62 62 62 59 65 64 63 64 66 66 66 66 65 63 63 63 61 61 60 58 56 56 56 59 61 60 59 58 57 57 57 57
63 64 66 65 67 67 67 66 66 65 62 60 60 58 56 65 65 64 63 62 62 64 61 63 61 59 57 57 58 56 56 56 56 56 60 61 60 59 58 57 57 56 56
62 63 65 66 66 67 66 66 66 64 59 59 59 58 56 61 63 62 61 60 59 58 57 58 56 56 57 56 55 55 54 55 56 56 59 62 61 59 59 58 57 56 55
62 63 64 66 66 67 66 65 65 64 60 59 60 59 58 56 59 61 60 59 59 58 57 56 54 54 54 53 53 54 54 55 56 56 58 60 62 60 59 59 57 57 56
63 63 63 65 67 67 65 65 64 64 61 60 60 59 58 59 57 57 59 61 59 59 58 58 56 55 51 51 51 52 53 54 54 55 55 59 60 62 60 59 59 57 57
62 63 64 64 66 66 66 65 65 64 62 61 60 59 59 59 59 59 57 59 59 59 58 58 57 56 54 52 49 49 51 52 54 54 55 55 59 60 62 59 59 58 58
60 62 63 65 66 66 65 65 65 64 63 61 61 60 60 58 58 59 57 58 58 58 58 58 57 56 55 54 53 49 49 52 53 54 54 55 56 57 60 62 61 59 59
58 60 61 65 66 66 67 66 66 65 64 63 61 60 59 58 57 58 57 56 57 57 57 57 56 55 54 55 54 52 51 51 54 53 54 54 55 56 57 59 60 60 60
54 57 59 63 65 66 67 67 67 66 66 65 62 61 60 58 58 59 57 56 56 57 58 58 56 57 55 54 53 51 54 54 54 56 56 55 55 56 57 57 58 58 58
58 58 58 61 64 65 65 66 66 65 66 66 66 63 61 61 60 60 60 58 57 57 58 58 57 56 56 56 55 54 55 55 56 56 56 55 54 55 56 56 56 56 57
50 59 57 60 63 64 66 66 66 66 66 66 66 66 64 63 62 61 61 60 58 58 58 58 58 57 56 57 55 54 52 53 55 55 55 54 54 54 54 55 54 55 55
46 56 58 60 61 63 64 66 65 65 64 64 64 65 66 65 64 63 62 61 61 60 60 60 59 58 56 56 57 55 53 52 53 54 54 54 53 54 53 52 52 52 53
44 52 59 59 62 63 64 64 63 61 60 61 62 64 65 65 65 65 64 63 62 62 61 61 60 59 58 57 57 56 56 56 53 52 52 51 50 49 50 50 48 48 49
45 48 55 60 61 62 62 60 58 59 60 60 60 59 62 64 64 65 65 63 63 63 62 61 61 60 59 58 57 57 56 56 56 54 53 52 49 48 47 46 45 45 46
45 44 47 58 60 61 60 59 57 56 57 57 57 59 60 62 62 62 63 63 63 63 63 62 61 61 60 59 59 58 57 56 56 55 53 53 54 52 48 46 46 44 44
Wind_Speed
24 26 22 21 22 23 23 22 21 19 17 16 15 15 15 14 14 14 15 18 20 19 21 19 18 17 19 18 18 20 20 19 18 18 17 16 16 14 12 15 14 15 15
28 27 25 23 23 23 22 22 20 19 18 15 16 15 16 15 14 15 14 16 18 18 19 18 17 17 17 17 18 19 17 15 13 15 19 17 14 16 14 17 14 15 15
28 27 26 24 23 23 22 21 20 19 18 16 16 15 16 15 15 15 15 15 17 18 19 18 18 18 18 17 17 16 15 11 8 6 4 18 18 22 21 18 22 20 18
27 27 26 24 24 22 22 21 20 19 18 16 16 16 16 16 15 15 16 17 18 19 19 18 19 17 16 16 15 15 11 7 6 3 11 19 18 21 20 20 20 20 20
26 25 26 24 23 23 22 21 21 21 19 18 17 17 16 16 15 15 16 17 18 18 17 17 17 17 17 16 15 12 7 3 5 14 17 16 14 17 17 17 17 17 17
25 25 28 24 23 23 22 20 20 19 19 18 17 17 16 16 16 16 16 16 17 16 16 15 15 15 15 15 13 10 7 10 5 14 15 18 16 16 17 17 17 17 17
24 25 25 24 22 23 21 19 18 19 19 18 16 17 18 16 17 16 16 15 15 17 14 14 16 17 16 16 14 10 8 12 15 14 16 16 15 16 16 16 16 16 16
26 23 24 22 24 22 20 18 18 18 19 18 17 16 19 17 17 17 15 13 15 15 14 15 14 15 17 16 14 10 8 10 14 14 15 14 14 14 15 14 15 15 16
21 21 24 22 21 21 18 18 18 17 17 18 16 16 18 17 17 16 14 13 14 14 14 14 14 15 15 13 11 9 6 9 12 10 13 12 12 13 13 13 14 14 14
15 20 23 22 21 20 19 19 17 16 17 18 17 18 19 16 16 15 13 12 12 13 12 12 12 12 13 12 10 7 4 2 11 12 12 10 11 12 12 12 12 13 13
19 20 18 21 20 20 19 17 15 18 17 18 16 19 19 14 13 15 15 12 12 12 11 11 10 10 11 9 7 4 6 6 9 11 11 8 9 10 10 10 10 11 11
21 21 19 19 19 17 17 18 17 17 15 14 13 14 14 16 13 12 14 12 11 10 10 9 8 9 12 8 6 6 5 5 7 9 10 7 8 8 8 8 8 8 9
21 14 16 19 20 18 15 16 13 13 14 13 15 14 13 15 13 11 11 11 10 10 9 8 7 8 6 7 8 4 3 5 6 7 10 7 7 7 7 7 7 7 7
20 19 18 16 19 17 15 12 12 13 13 12 13 14 13 14 15 13 12 13 13 11 10 10 10 6 5 4 5 5 3 3 3 3 11 8 5 6 6 6 6 6 6
16 19 17 16 16 16 17 15 13 10 10 10 11 13 13 13 14 16 14 12 11 11 10 9 7 6 7 6 5 4 3 3 3 3 9 12 7 6 6 6 5 5 5
18 18 20 19 17 15 15 14 12 10 12 10 10 11 13 12 12 12 12 10 9 9 8 8 8 7 6 6 7 6 6 5 5 3 2 11 11 8 8 7 6 6 5
16 18 14 16 19 18 17 15 10 10 9 11 10 11 13 11 11 11 11 11 11 11 9 8 6 6 7 6 7 7 7 7 6 5 4 4 12 11 9 9 9 8 8
13 14 17 15 13 17 17 16 12 11 10 11 11 11 12 12 11 11 10 10 10 9 9 8 8 8 8 8 8 7 6 5 6 7 5 6 5 8 13 12 10 10 11
13 14 16 18 19 17 15 11 13 11 11 9 11 10 13 13 12 11 10 10 10 9 9 8 8 7 7 7 7 5 6 7 7 8 7 8 7 6 7 18 16 12 10
9 14 16 16 18 17 15 12 11 10 8 8 9 11 12 12 12 12 10 10 10 10 9 8 8 7 7 7 7 7 7 8 8 8 9 10 8 9 9 8 12 12 16
9 12 16 17 19 18 15 12 10 11 8 3 6 6 9 11 12 12 9 10 11 11 11 10 9 9 8 7 6 8 9 10 11 10 10 9 9 9 10 10 9 9 13
8 8 13 17 16 16 14 12 6 7 5 7 8 8 11 12 11 12 12 10 12 10 11 11 10 8 9 9 6 4 4 8 10 10 9 8 9 8 9 8 8 9 7
6 5 10 11 17 15 14 11 9 8 4 4 5 10 10 10 10 11 11 11 10 10 9 11 11 12 10 10 12 6 3 6 5 8 8 8 8 7 5 4 4 4 4
6 6 3 8 15 13 12 13 13 7 7 6 5 7 9 12 11 11 12 10 9 10 11 10 11 12 14 11 8 11 12 7 3 4 6 5 3 3 2 2 1 2 2
8 7 1 4 9 15 16 16 13 8 4 3 6 8 8 6 7 5 8 15 11 10 10 11 10 13 12 13 10 7 11 11 10 10 9 5 4 5 3 3 3 2 1
12 6 6 6 13 11 15 13 20 13 5 5 8 11 8 4 5 7 9 9 10 11 11 9 13 11 14 14 14 16 12 6 12 11 12 11 8 5 4 2 2 3 4
Wind_Direction
143 145 140 138 137 132 130 128 128 127 123 121 116 113 107 103 103 103 101 94 91 94 92 95 99 100 97 90 86 84 86 83 84 86 80 73 72 68 54 36 69 68 61
142 150 141 141 139 134 133 131 130 127 125 123 120 115 112 108 109 109 103 101 94 95 96 97 98 97 96 100 95 90 86 86 95 106 104 88 65 68 72 62 51 77 67
143 150 148 142 139 138 135 134 132 128 124 127 122 119 112 111 110 109 111 110 105 101 100 99 99 98 100 102 87 84 83 90 91 113 218 81 82 75 76 64 62 77 65
145 151 152 144 141 139 139 139 135 133 130 130 125 118 114 110 110 110 109 111 109 105 101 101 99 99 100 97 93 89 97 94 61 357 75 74 72 65 65 64 56 52 53
143 157 144 146 145 144 143 144 142 142 140 134 130 123 117 112 113 111 110 110 104 103 105 104 104 103 102 99 97 98 90 69 119 73 68 71 64 59 59 55 59 60 59
146 157 143 146 147 144 146 149 150 144 140 136 133 128 121 114 115 115 115 109 109 110 103 108 116 114 106 102 99 93 45 354 3 82 80 63 57 58 63 65 65 65 64
156 132 152 149 149 147 150 152 148 143 140 137 133 135 121 118 118 119 119 116 110 108 108 105 98 101 105 102 101 82 43 24 77 77 70 69 65 65 65 66 66 64 64
125 141 155 154 150 148 155 155 149 147 146 145 142 136 126 124 122 123 120 117 113 113 103 101 105 110 103 102 97 76 33 1 82 80 76 73 68 69 69 68 67 67 67
129 152 159 165 158 153 155 151 149 148 145 143 145 135 127 126 123 126 128 127 121 113 106 104 102 109 110 103 95 85 58 31 79 78 87 81 74 74 74 72 73 73 74
149 148 166 165 167 163 158 152 152 147 147 132 124 121 124 125 125 127 134 131 124 117 111 107 104 111 116 108 104 114 163 214 96 90 79 87 84 79 77 76 77 78 78
158 166 165 164 169 167 161 159 148 143 140 127 128 130 144 140 144 148 123 125 120 120 119 114 109 116 117 110 117 180 244 97 90 90 92 94 89 87 87 86 82 84 84
160 172 166 163 170 161 156 158 157 152 157 160 159 164 175 150 152 128 123 127 124 122 121 126 131 146 164 147 158 230 221 116 93 94 103 111 104 101 98 96 94 91 91
163 162 169 170 166 156 147 171 158 169 173 165 159 176 171 128 125 141 143 150 146 162 164 166 167 197 197 163 173 171 148 112 121 110 121 129 122 115 113 109 105 99 97
169 169 170 170 160 157 157 159 161 202 174 168 170 180 164 164 167 165 168 174 164 185 171 189 191 187 191 195 184 179 179 139 145 134 138 146 145 137 137 129 128 122 117
182 166 183 171 166 167 159 166 163 233 182 175 179 182 176 176 182 168 183 176 176 186 175 190 195 183 203 205 213 209 201 201 167 161 140 158 168 175 167 161 159 149 144
186 191 191 169 168 173 175 166 168 179 201 177 181 194 192 183 185 184 182 169 194 182 186 190 195 195 206 221 215 213 214 210 219 202 201 166 175 194 197 190 185 181 176
189 192 200 177 178 184 179 173 177 175 209 178 188 194 197 188 190 188 191 184 194 189 191 197 199 214 214 218 232 228 224 224 204 213 215 203 177 193 208 212 206 200 200
179 190 194 184 189 194 187 184 181 191 190 192 187 190 198 196 193 190 194 191 193 190 200 198 208 209 220 213 225 225 234 232 242 233 209 222 221 196 199 214 226 217 212
192 191 195 190 186 188 191 186 196 200 187 202 193 189 193 198 197 199 198 196 194 194 200 207 213 224 218 230 240 244 227 233 227 241 241 234 223 222 213 193 207 221 227
191 205 193 194 197 188 176 190 196 200 207 227 207 194 187 199 197 206 207 205 195 201 205 204 215 213 235 223 223 232 232 228 233 235 231 231 232 209 224 202 193 220 228
146 214 195 193 199 188 187 182 182 202 191 236 274 213 201 201 199 205 215 208 202 207 209 208 210 220 217 231 240 237 237 238 231 232 231 240 217 220 226 223 221 227 205
111 199 220 188 191 187 176 166 128 176 190 181 219 246 216 203 203 206 218 214 208 209 214 213 212 214 230 198 218 241 260 211 218 225 228 227 232 209 221 229 234 232 252
104 153 234 197 185 175 183 149 118 126 115 158 193 233 243 211 210 209 224 225 217 217 222 217 214 212 216 214 222 231 195 237 158 171 208 214 221 217 218 225 231 272 324
129 94 186 204 169 165 152 161 152 154 197 177 183 207 221 226 222 209 217 227 231 214 226 224 215 220 229 230 201 247 269 303 250 237 178 213 248 252 245 112 15 326 300
127 117 65 201 181 161 170 184 157 193 213 307 246 266 254 214 204 192 232 223 223 250 228 232 217 227 238 227 222 208 229 239 238 248 264 193 204 176 112 89 76 64 21
121 132 153 158 184 193 205 181 167 170 183 254 277 274 276 260 250 219 220 230 218 239 243 224 216 225 234 241 233 234 222 201 219 220 237 247 250 153 130 114 50 45 32